SCP
0 0 0 0 0 -0 0 0 0 0 0 0 0 0 0 0 0 0 0 -0 -0 -0 -0 -0 -2 -3 -1 -1 -0 -0 -0 -0 -1 -0 -0 -0 -0 -0 0 0 0 0 0 0
0 0 0 0 0 -0 0 0 0 0 0 0 0 0 0 0 0 0 0 -0 -0 0 -0 -1 -2 -3 -2 -2 -1 -1 0 0 -0 -0 0 -0 -0 -0 0 0 0 0 0 0
0 0 0 0 0 0 0 0 0 0 0 -0 0 0 0 0 0 0 0 -0 -0 -0 -0 -1 -1 -2 -2 -2 -1 -0 -0 0 -0 -0 0 -0 -1 -0 -0 -0 -0 0 0 0
0 0 0 0 -0 0 0 0 0 0 0 0 0 0 -0 0 0 0 0 0 0 -0 -0 -1 -1 -1 -1 -1 -1 -1 -1 -0 -0 -0 0 -0 -1 -1 -1 -0 -0 0 0 0
0 0 0 0 0 0 0 0 0 -0 0 0 0 0 0 0 0 0 0 0 0 -0 -0 -0 -1 -1 -1 -1 -1 -1 -1 -0 -0 -0 -0 -0 -0 -1 -1 -1 -0 -0 0 0
0 0 0 0 0 0 0 0 0 0 0 0 0 -0 1 0 0 0 0 -0 -0 -0 0 -0 -0 -1 -1 -1 -0 -0 -0 -0 -0 -0 -0 -0 -0 -0 -0 -0 -0 0 0 0
0 0 0 0 0 0 0 0 0 0 0 0 0 0 0 0 0 0 0 0 0 0 0 0 0 -0 -0 -0 -0 -0 -0 0 0 -0 -1 -0 -0 -0 -0 -0 0 0 0 0
0 0 0 0 0 0 0 0 0 0 0 0 0 0 0 0 0 0 0 0 0 0 0 1 1 1 1 1 1 1 1 1 1 1 0 0 0 -0 -0 0 0 1 0 0
0 0 1 0 1 1 1 0 0 0 0 0 0 0 0 1 0 0 0 0 1 1 1 2 2 1 1 2 2 3 3 3 3 1 1 1 1 0 0 0 0 0 0 0
0 1 1 1 1 1 1 1 0 0 0 0 0 0 1 1 1 0 0 0 0 0 1 1 3 2 3 4 5 5 5 4 3 2 2 2 1 1 0 0 0 0 0 0
1 1 1 1 1 1 1 1 0 0 0 0 0 0 1 1 1 1 1 0 0 0 0 1 1 2 2 3 4 4 4 4 5 5 3 3 0 1 1 0 0 0 0 0
0 0 0 1 0 0 1 0 0 0 0 0 0 0 1 1 1 1 1 1 1 1 1 2 2 4 5 6 7 8 6 7 4 6 5 1 0 0 0 0 0 0 0 0
1 1 0 0 0 0 0 0 0 0 0 0 0 1 1 1 1 1 1 1 2 2 2 2 3 3 4 6 10 13 13 8 11 5 5 3 2 0 0 0 0 0 0 0
0 0 0 0 0 0 0 0 0 1 1 0 1 1 1 1 1 1 1 1 1 1 1 1 2 2 2 3 3 3 6 6 9 11 2 1 1 0 0 0 0 0 0 0
1 0 0 0 0 0 0 0 0 0 1 1 1 1 1 1 1 1 1 1 1 1 1 1 1 1 2 1 3 3 2 5 1 2 2 1 0 1 0 0 0 0 0 0
0 0 0 0 0 0 0 0 0 0 0 1 1 1 1 1 1 1 1 1 1 1 1 1 1 1 1 2 1 0 0 -0 1 1 1 1 1 0 0 0 0 0 0 0
0 0 0 0 0 0 0 0 0 0 0 0 1 1 1 1 1 1 1 1 1 1 1 1 1 1 0 0 0 -0 0 0 -0 0 0 1 0 0 0 0 0 0 0 0
0 0 0 0 0 0 0 0 0 0 0 0 1 1 1 1 1 1 1 1 1 1 1 1 0 0 0 0 -0 -0 0 -0 -0 0 0 0 0 0 0 0 0 0 0 0
0 0 0 0 0 0 0 0 0 0 0 0 0 1 1 1 2 1 0 0 1 1 1 1 1 0 0 0 -0 0 0 0 -0 -0 -0 -0 0 0 0 0 0 0 0 0
0 0 0 0 0 0 0 0 0 0 0 0 0 1 1 1 1 1 0 0 1 1 1 1 0 0 0 0 -0 -0 -0 0 0 -0 0 0 0 0 0 0 0 0 0 0
1 1 0 0 0 0 0 0 0 0 0 0 1 1 1 1 1 1 1 1 1 1 2 0 0 0 0 0 0 0 0 0 0 0 0 0 0 0 0 0 0 0 0 0
0 1 1 0 0 0 0 0 0 0 0 0 1 1 1 1 1 1 1 2 2 1 3 2 1 0 0 0 0 0 0 0 0 0 0 0 0 0 0 0 0 0 0 0
0 0 0 1 1 0 0 0 0 0 0 0 0 1 1 1 1 1 1 1 1 1 2 3 2 1 0 1 1 0 1 1 0 0 0 0 0 0 0 0 0 0 0 0
0 0 0 0 1 0 0 0 0 0 0 0 1 1 1 1 1 0 1 1 1 1 1 2 1 0 0 3 1 0 1 1 1 1 0 0 0 0 0 0 0 0 0 0
0 0 0 0 0 0 0 0 0 0 0 1 1 1 1 0 0 0 0 1 0 0 1 0 0 0 0 2 1 2 2 2 1 0 0 0 0 0 0 0 0 0 0 0
0 0 0 0 0 0 0 0 0 0 0 0 0 0 1 0 0 1 1 0 0 0 0 0 0 0 0 0 2 3 2 1 1 1 0 0 0 0 0 0 0 0 0 0
0 0 0 0 0 0 0 0 0 0 0 0 0 1 1 0 1 0 0 0 0 0 0 0 0 0 0 0 0 0 0 0 0 0 0 0 0 0 0 0 0 0 0 0
Wind_Speed_500mb
25 16 16 28 34 41 43 38 33 24 22 23 6 7 26 16 11 25 43 61 63 62 62 64 65 70 77 77 70 67 54 53 56 49 45 43 37 36 35 32 26 24 21 20
22 13 14 22 34 39 36 38 31 34 33 26 19 11 15 23 22 31 49 62 63 60 61 71 67 73 78 80 75 79 57 58 53 52 47 47 46 42 41 33 26 23 21 19
24 30 20 24 26 30 23 22 27 30 27 32 13 14 15 12 25 38 52 62 64 67 65 67 70 71 75 78 74 81 68 48 50 53 50 48 46 44 38 34 27 22 22 20
22 29 29 23 29 27 29 26 27 28 31 19 8 16 26 16 20 34 48 62 64 66 64 61 62 61 63 64 71 75 67 51 48 50 46 41 41 45 41 37 33 28 27 24
26 20 21 34 15 17 21 25 30 36 26 11 19 29 7 4 11 25 46 61 62 63 61 58 59 61 56 51 59 67 59 53 53 52 49 42 39 42 42 39 35 31 29 32
23 27 33 28 21 20 1 15 17 16 14 14 23 22 17 6 3 12 33 47 54 54 52 56 56 55 55 55 54 62 61 57 54 52 48 42 45 47 42 39 36 30 30 28
27 20 29 36 14 14 20 8 12 12 10 13 15 16 12 11 1 12 21 34 43 48 53 54 57 61 63 59 63 66 61 58 58 55 47 44 46 45 43 37 36 38 37 32
27 35 31 30 29 20 13 19 9 8 9 14 17 16 8 4 2 12 22 30 38 43 50 55 63 71 61 62 65 68 66 67 62 56 50 47 45 44 42 45 47 44 33 24
30 21 23 7 28 23 13 16 7 2 8 12 17 12 7 1 6 11 20 27 32 37 45 50 59 62 66 72 67 67 68 65 65 60 56 52 53 47 44 47 36 32 26 21
27 22 17 22 21 21 14 13 5 3 7 12 13 11 10 4 6 9 17 24 29 34 38 43 49 46 47 56 66 65 64 62 61 62 60 54 43 43 35 34 31 28 25 23
15 15 18 16 15 15 8 7 4 5 6 11 11 9 10 8 8 10 14 19 23 28 32 37 42 40 39 41 45 49 52 57 60 59 52 54 56 50 46 49 40 30 26 24
18 40 19 27 15 7 5 6 6 7 7 10 12 8 10 10 12 12 13 15 21 24 27 36 44 42 39 46 44 49 54 60 57 56 57 63 63 62 50 51 49 40 33 36
22 25 29 23 18 9 6 6 9 7 7 10 12 8 8 12 14 15 14 17 20 25 29 36 42 48 46 46 52 57 64 62 64 55 56 53 58 68 59 50 49 45 41 36
28 18 16 13 15 7 5 7 8 5 8 8 10 8 7 13 13 16 16 18 26 30 32 34 40 47 54 57 67 61 56 66 65 58 48 45 40 55 56 50 49 47 42 34
10 4 4 5 6 7 8 10 9 10 8 9 9 8 7 14 18 18 18 19 21 23 27 30 34 37 42 44 53 50 64 70 67 61 39 26 37 45 38 37 41 44 40 37
8 7 5 11 15 18 20 19 18 15 14 12 11 10 10 11 14 16 20 21 23 25 25 26 30 26 34 45 46 46 50 54 55 50 59 70 52 55 36 36 34 38 40 45
20 23 23 27 26 26 24 23 23 23 23 20 17 15 12 8 11 14 18 23 25 26 27 28 31 31 15 19 32 27 32 42 44 54 46 54 49 40 36 40 37 29 30 32
36 39 41 44 43 43 41 38 35 32 30 28 25 21 15 10 9 13 20 23 26 28 31 32 34 38 27 37 47 46 32 51 54 35 37 41 38 37 41 39 33 32 34 44
30 35 38 44 49 51 52 51 47 43 35 31 29 27 21 15 12 13 19 29 32 33 34 33 41 41 38 49 57 55 35 43 52 50 41 44 44 42 39 39 41 42 43 36
24 30 34 40 41 44 45 43 43 43 38 34 31 30 26 20 17 17 21 28 34 36 34 38 49 48 53 57 62 51 46 47 52 50 44 45 45 46 43 45 46 47 42 37
20 24 27 33 37 37 38 34 35 38 38 36 33 31 27 21 19 19 23 27 29 36 39 53 49 48 52 72 63 49 49 54 59 59 54 53 50 50 48 51 51 47 44 40
20 21 24 21 23 29 31 32 32 32 33 34 31 30 28 25 22 24 27 28 20 39 47 48 56 56 55 62 68 60 48 50 53 56 54 53 52 54 52 51 51 48 47 42
24 24 22 21 16 20 24 29 31 32 33 34 31 28 29 26 23 24 25 23 30 33 40 42 54 63 69 70 68 74 59 55 56 56 55 53 56 55 55 54 51 50 46 42
26 26 23 23 19 18 21 24 27 30 32 31 29 26 25 24 26 25 24 28 32 44 47 42 55 66 85 87 68 72 67 64 62 58 54 55 56 54 55 53 56 51 44 44
27 26 22 22 21 19 17 17 21 27 29 27 25 25 25 27 29 22 21 26 41 43 39 42 57 53 76 88 78 64 65 63 58 58 55 56 53 54 54 56 53 47 46 44
27 26 25 21 22 20 21 18 20 26 29 29 29 27 24 25 25 26 24 30 33 42 36 51 48 62 74 75 71 69 59 58 64 60 59 56 54 57 55 53 50 53 48 44
30 28 26 23 23 19 19 20 25 30 32 34 34 28 26 27 29 29 30 31 36 34 31 48 43 52 66 50 50 55 54 54 56 60 58 54 53 52 51 50 48 48 48 47
Wind_Direction_500mb
285 284 294 209 204 226 238 256 271 252 246 272 281 323 354 70 160 165 187 183 190 193 189 191 184 190 199 198 195 197 205 189 205 206 208 207 206 206 212 212 211 211 217 213
290 235 247 256 211 213 221 234 256 275 285 303 317 304 295 297 210 197 191 191 193 198 187 187 191 199 206 203 197 200 203 197 201 212 215 207 207 213 210 210 200 207 212 200
243 240 218 241 222 234 223 216 241 254 250 252 249 2 312 254 211 200 190 199 194 197 195 196 198 202 208 209 205 205 209 205 210 211 206 207 210 207 206 202 191 191 191 178
241 231 218 245 216 208 220 224 243 239 264 292 20 295 272 220 217 207 200 199 196 199 202 201 202 204 202 206 205 204 210 204 205 199 197 203 208 204 199 199 186 178 178 178
249 220 216 235 152 211 228 248 259 260 245 14 329 306 151 289 251 231 203 200 200 200 202 198 198 199 197 193 195 202 204 200 198 201 199 205 202 196 194 186 184 179 178 181
254 239 250 224 189 105 76 242 56 16 8 349 316 286 72 27 232 212 191 196 196 197 197 194 195 192 187 187 187 194 195 199 200 198 204 212 190 194 191 186 184 166 176 178
235 254 250 84 16 164 214 81 57 32 7 325 307 353 252 300 337 191 195 188 190 191 192 188 186 186 185 185 190 193 195 197 197 197 206 193 193 188 183 174 179 176 175 185
248 249 239 144 175 220 95 104 68 32 351 319 304 290 237 295 216 184 182 182 184 186 185 183 184 186 180 185 189 192 194 192 191 192 176 188 187 185 178 178 181 184 179 172
235 245 118 128 85 102 95 110 113 88 347 324 306 280 218 92 145 167 169 177 177 179 179 181 184 188 184 185 187 179 182 182 181 175 169 180 178 176 172 185 176 175 175 177
221 121 123 110 110 101 87 94 96 61 346 332 315 267 226 187 156 148 148 156 166 172 179 179 184 186 187 183 184 180 179 179 174 168 175 169 171 170 173 178 185 185 184 191
128 87 117 142 92 89 85 69 46 18 335 339 321 282 228 198 187 159 146 149 156 167 176 176 173 172 177 170 176 177 181 175 174 172 167 164 172 174 177 185 189 198 199 202
241 167 202 130 115 103 86 58 30 5 325 323 334 295 229 205 195 180 160 152 152 157 162 170 170 169 177 176 173 176 179 182 178 174 169 180 174 176 185 187 192 191 198 209
95 77 104 125 114 87 79 49 15 360 328 311 326 316 233 207 200 190 167 160 153 150 157 168 172 179 189 185 184 179 185 187 175 174 173 173 177 184 191 194 198 202 212 218
113 120 146 162 138 70 38 18 359 337 342 326 328 314 232 207 202 196 183 164 151 147 153 165 173 191 202 204 203 198 200 196 184 173 172 172 177 191 201 206 205 209 217 225
147 208 190 186 233 246 309 321 329 323 326 340 336 327 265 226 218 212 204 198 192 190 187 187 188 196 209 204 209 208 197 185 186 185 231 231 200 200 189 197 203 212 217 216
214 227 220 252 265 272 283 285 287 289 299 308 328 325 304 257 234 228 218 208 198 197 199 182 171 184 195 205 201 201 206 226 221 218 214 195 193 206 198 187 196 222 207 207
274 266 263 263 265 268 274 278 278 283 285 290 297 306 311 289 239 223 208 206 204 202 206 191 183 189 184 195 181 188 206 200 198 187 187 191 201 194 187 186 191 190 190 211
263 267 267 267 267 268 268 266 268 275 277 280 285 289 297 300 275 236 218 208 215 215 213 208 198 201 206 191 186 188 196 180 177 181 192 199 203 205 199 194 188 191 195 213
274 274 270 266 265 264 263 262 260 261 262 264 271 273 276 275 265 248 227 220 216 221 228 215 221 209 206 201 188 173 183 193 192 195 204 201 202 203 199 197 196 198 202 206
279 278 272 267 265 259 259 257 256 254 251 251 256 259 262 261 257 248 234 227 223 225 220 217 218 205 204 193 181 184 190 196 191 202 204 204 204 205 204 203 201 200 202 197
301 293 287 274 263 258 254 255 254 251 246 240 245 250 255 256 251 240 235 235 229 214 215 215 214 196 199 193 186 186 202 203 201 205 211 206 202 202 201 201 201 201 202 202
349 333 313 296 268 259 256 254 252 249 239 235 238 245 250 247 237 244 235 222 226 218 215 213 213 203 200 202 201 192 206 207 209 208 207 202 199 197 201 202 202 202 205 202
354 343 333 316 300 279 264 257 253 242 231 233 240 243 244 241 236 236 244 259 215 218 207 214 218 199 204 209 205 200 210 212 214 213 208 205 201 200 200 201 200 204 204 202
341 340 339 332 311 288 273 264 245 239 235 236 240 235 227 236 248 247 242 241 231 231 221 220 223 217 210 213 208 196 209 209 211 210 209 204 203 201 200 200 199 200 201 203
325 328 331 329 327 299 274 264 251 238 233 236 232 235 240 247 243 249 246 230 247 248 235 228 232 231 217 217 206 209 209 207 205 206 203 203 204 203 199 201 198 197 198 198
309 310 312 311 316 309 293 278 251 242 233 238 243 245 255 251 244 237 244 250 241 260 236 239 231 220 216 211 204 198 198 200 199 198 203 201 201 204 201 198 195 196 195 192
294 292 292 300 306 303 300 284 273 260 250 249 258 260 245 250 247 245 267 258 265 251 229 225 231 214 200 201 202 197 198 197 199 200 196 198 197 203 201 198 197 192 193 193
Wind_Speed_850mb
25 16 16 28 34 41 43 38 33 24 22 23 6 7 26 16 11 25 43 61 63 62 62 64 65 70 77 77 70 67 54 53 56 49 45 43 37 36 35 32 26 24 21 20
22 13 14 22 34 39 36 38 31 34 33 26 19 11 15 23 22 31 49 62 63 60 61 71 67 73 78 80 75 79 57 58 53 52 47 47 46 42 41 33 26 23 21 19
24 30 20 24 26 30 23 22 27 30 27 32 13 14 15 12 25 38 52 62 64 67 65 67 70 71 75 78 74 81 68 48 50 53 50 48 46 44 38 34 27 22 22 20
22 29 29 23 29 27 29 26 27 28 31 19 8 16 26 16 20 34 48 62 64 66 64 61 62 61 63 64 71 75 67 51 48 50 46 41 41 45 41 37 33 28 27 24
26 20 21 34 15 17 21 25 30 36 26 11 19 29 7 4 11 25 46 61 62 63 61 58 59 61 56 51 59 67 59 53 53 52 49 42 39 42 42 39 35 31 29 32
23 27 33 28 21 20 1 15 17 16 14 14 23 22 17 6 3 12 33 47 54 54 52 56 56 55 55 55 54 62 61 57 54 52 48 42 45 47 42 39 36 30 30 28
27 20 29 36 14 14 20 8 12 12 10 13 15 16 12 11 1 12 21 34 43 48 53 54 57 61 63 59 63 66 61 58 58 55 47 44 46 45 43 37 36 38 37 32
27 35 31 30 29 20 13 19 9 8 9 14 17 16 8 4 2 12 22 30 38 43 50 55 63 71 61 62 65 68 66 67 62 56 50 47 45 44 42 45 47 44 33 24
30 21 23 7 28 23 13 16 7 2 8 12 17 12 7 1 6 11 20 27 32 37 45 50 59 62 66 72 67 67 68 65 65 60 56 52 53 47 44 47 36 32 26 21
27 22 17 22 21 21 14 13 5 3 7 12 13 11 10 4 6 9 17 24 29 34 38 43 49 46 47 56 66 65 64 62 61 62 60 54 43 43 35 34 31 28 25 23
15 15 18 16 15 15 8 7 4 5 6 11 11 9 10 8 8 10 14 19 23 28 32 37 42 40 39 41 45 49 52 57 60 59 52 54 56 50 46 49 40 30 26 24
18 40 19 27 15 7 5 6 6 7 7 10 12 8 10 10 12 12 13 15 21 24 27 36 44 42 39 46 44 49 54 60 57 56 57 63 63 62 50 51 49 40 33 36
22 25 29 23 18 9 6 6 9 7 7 10 12 8 8 12 14 15 14 17 20 25 29 36 42 48 46 46 52 57 64 62 64 55 56 53 58 68 59 50 49 45 41 36
28 18 16 13 15 7 5 7 8 5 8 8 10 8 7 13 13 16 16 18 26 30 32 34 40 47 54 57 67 61 56 66 65 58 48 45 40 55 56 50 49 47 42 34
10 4 4 5 6 7 8 10 9 10 8 9 9 8 7 14 18 18 18 19 21 23 27 30 34 37 42 44 53 50 64 70 67 61 39 26 37 45 38 37 41 44 40 37
8 7 5 11 15 18 20 19 18 15 14 12 11 10 10 11 14 16 20 21 23 25 25 26 30 26 34 45 46 46 50 54 55 50 59 70 52 55 36 36 34 38 40 45
20 23 23 27 26 26 24 23 23 23 23 20 17 15 12 8 11 14 18 23 25 26 27 28 31 31 15 19 32 27 32 42 44 54 46 54 49 40 36 40 37 29 30 32
36 39 41 44 43 43 41 38 35 32 30 28 25 21 15 10 9 13 20 23 26 28 31 32 34 38 27 37 47 46 32 51 54 35 37 41 38 37 41 39 33 32 34 44
30 35 38 44 49 51 52 51 47 43 35 31 29 27 21 15 12 13 19 29 32 33 34 33 41 41 38 49 57 55 35 43 52 50 41 44 44 42 39 39 41 42 43 36
24 30 34 40 41 44 45 43 43 43 38 34 31 30 26 20 17 17 21 28 34 36 34 38 49 48 53 57 62 51 46 47 52 50 44 45 45 46 43 45 46 47 42 37
20 24 27 33 37 37 38 34 35 38 38 36 33 31 27 21 19 19 23 27 29 36 39 53 49 48 52 72 63 49 49 54 59 59 54 53 50 50 48 51 51 47 44 40
20 21 24 21 23 29 31 32 32 32 33 34 31 30 28 25 22 24 27 28 20 39 47 48 56 56 55 62 68 60 48 50 53 56 54 53 52 54 52 51 51 48 47 42
24 24 22 21 16 20 24 29 31 32 33 34 31 28 29 26 23 24 25 23 30 33 40 42 54 63 69 70 68 74 59 55 56 56 55 53 56 55 55 54 51 50 46 42
26 26 23 23 19 18 21 24 27 30 32 31 29 26 25 24 26 25 24 28 32 44 47 42 55 66 85 87 68 72 67 64 62 58 54 55 56 54 55 53 56 51 44 44
27 26 22 22 21 19 17 17 21 27 29 27 25 25 25 27 29 22 21 26 41 43 39 42 57 53 76 88 78 64 65 63 58 58 55 56 53 54 54 56 53 47 46 44
27 26 25 21 22 20 21 18 20 26 29 29 29 27 24 25 25 26 24 30 33 42 36 51 48 62 74 75 71 69 59 58 64 60 59 56 54 57 55 53 50 53 48 44
30 28 26 23 23 19 19 20 25 30 32 34 34 28 26 27 29 29 30 31 36 34 31 48 43 52 66 50 50 55 54 54 56 60 58 54 53 52 51 50 48 48 48 47
Wind_Direction_850mb
285 284 294 209 204 226 238 256 271 252 246 272 281 323 354 70 160 165 187 183 190 193 189 191 184 190 199 198 195 197 205 189 205 206 208 207 206 206 212 212 211 211 217 213
290 235 247 256 211 213 221 234 256 275 285 303 317 304 295 297 210 197 191 191 193 198 187 187 191 199 206 203 197 200 203 197 201 212 215 207 207 213 210 210 200 207 212 200
243 240 218 241 222 234 223 216 241 254 250 252 249 2 312 254 211 200 190 199 194 197 195 196 198 202 208 209 205 205 209 205 210 211 206 207 210 207 206 202 191 191 191 178
241 231 218 245 216 208 220 224 243 239 264 292 20 295 272 220 217 207 200 199 196 199 202 201 202 204 202 206 205 204 210 204 205 199 197 203 208 204 199 199 186 178 178 178
249 220 216 235 152 211 228 248 259 260 245 14 329 306 151 289 251 231 203 200 200 200 202 198 198 199 197 193 195 202 204 200 198 201 199 205 202 196 194 186 184 179 178 181
254 239 250 224 189 105 76 242 56 16 8 349 316 286 72 27 232 212 191 196 196 197 197 194 195 192 187 187 187 194 195 199 200 198 204 212 190 194 191 186 184 166 176 178
235 254 250 84 16 164 214 81 57 32 7 325 307 353 252 300 337 191 195 188 190 191 192 188 186 186 185 185 190 193 195 197 197 197 206 193 193 188 183 174 179 176 175 185
248 249 239 144 175 220 95 104 68 32 351 319 304 290 237 295 216 184 182 182 184 186 185 183 184 186 180 185 189 192 194 192 191 192 176 188 187 185 178 178 181 184 179 172
235 245 118 128 85 102 95 110 113 88 347 324 306 280 218 92 145 167 169 177 177 179 179 181 184 188 184 185 187 179 182 182 181 175 169 180 178 176 172 185 176 175 175 177
221 121 123 110 110 101 87 94 96 61 346 332 315 267 226 187 156 148 148 156 166 172 179 179 184 186 187 183 184 180 179 179 174 168 175 169 171 170 173 178 185 185 184 191
128 87 117 142 92 89 85 69 46 18 335 339 321 282 228 198 187 159 146 149 156 167 176 176 173 172 177 170 176 177 181 175 174 172 167 164 172 174 177 185 189 198 199 202
241 167 202 130 115 103 86 58 30 5 325 323 334 295 229 205 195 180 160 152 152 157 162 170 170 169 177 176 173 176 179 182 178 174 169 180 174 176 185 187 192 191 198 209
95 77 104 125 114 87 79 49 15 360 328 311 326 316 233 207 200 190 167 160 153 150 157 168 172 179 189 185 184 179 185 187 175 174 173 173 177 184 191 194 198 202 212 218
113 120 146 162 138 70 38 18 359 337 342 326 328 314 232 207 202 196 183 164 151 147 153 165 173 191 202 204 203 198 200 196 184 173 172 172 177 191 201 206 205 209 217 225
147 208 190 186 233 246 309 321 329 323 326 340 336 327 265 226 218 212 204 198 192 190 187 187 188 196 209 204 209 208 197 185 186 185 231 231 200 200 189 197 203 212 217 216
214 227 220 252 265 272 283 285 287 289 299 308 328 325 304 257 234 228 218 208 198 197 199 182 171 184 195 205 201 201 206 226 221 218 214 195 193 206 198 187 196 222 207 207
274 266 263 263 265 268 274 278 278 283 285 290 297 306 311 289 239 223 208 206 204 202 206 191 183 189 184 195 181 188 206 200 198 187 187 191 201 194 187 186 191 190 190 211
263 267 267 267 267 268 268 266 268 275 277 280 285 289 297 300 275 236 218 208 215 215 213 208 198 201 206 191 186 188 196 180 177 181 192 199 203 205 199 194 188 191 195 213
274 274 270 266 265 264 263 262 260 261 262 264 271 273 276 275 265 248 227 220 216 221 228 215 221 209 206 201 188 173 183 193 192 195 204 201 202 203 199 197 196 198 202 206
279 278 272 267 265 259 259 257 256 254 251 251 256 259 262 261 257 248 234 227 223 225 220 217 218 205 204 193 181 184 190 196 191 202 204 204 204 205 204 203 201 200 202 197
301 293 287 274 263 258 254 255 254 251 246 240 245 250 255 256 251 240 235 235 229 214 215 215 214 196 199 193 186 186 202 203 201 205 211 206 202 202 201 201 201 201 202 202
349 333 313 296 268 259 256 254 252 249 239 235 238 245 250 247 237 244 235 222 226 218 215 213 213 203 200 202 201 192 206 207 209 208 207 202 199 197 201 202 202 202 205 202
354 343 333 316 300 279 264 257 253 242 231 233 240 243 244 241 236 236 244 259 215 218 207 214 218 199 204 209 205 200 210 212 214 213 208 205 201 200 200 201 200 204 204 202
341 340 339 332 311 288 273 264 245 239 235 236 240 235 227 236 248 247 242 241 231 231 221 220 223 217 210 213 208 196 209 209 211 210 209 204 203 201 200 200 199 200 201 203
325 328 331 329 327 299 274 264 251 238 233 236 232 235 240 247 243 249 246 230 247 248 235 228 232 231 217 217 206 209 209 207 205 206 203 203 204 203 199 201 198 197 198 198
309 310 312 311 316 309 293 278 251 242 233 238 243 245 255 251 244 237 244 250 241 260 236 239 231 220 216 211 204 198 198 200 199 198 203 201 201 204 201 198 195 196 195 192
294 292 292 300 306 303 300 284 273 260 250 249 258 260 245 250 247 245 267 258 265 251 229 225 231 214 200 201 202 197 198 197 199 200 196 198 197 203 201 198 197 192 193 193